W4BOD Weather Reports


time (UTC)temp
F
wind
direction
speed
knots
gust
knots
rain 1hr
in
rain 24hr
in
rain mn
in
humidity
%
barometer
mb
20260504050750 58 329 0.0 0.0 0.00 0.00 0.00 62 1015.5
20260504050247 59 328 0.0 0.9 0.00 0.00 0.00 61 1015.4
20260504045745 59 331 0.0 0.9 0.00 0.01 0.01 60 1015.4
20260504045239 59 336 0.0 0.0 0.00 0.01 0.01 59 1015.5
20260504044737 59 324 0.0 1.7 0.00 0.01 0.01 58 1015.3
20260504044234 60 313 0.0 0.9 0.00 0.01 0.01 56 1015.2
20260504043731 60 339 0.0 0.9 0.00 0.01 0.01 56 1015.2
20260504043228 60 263 1.7 2.6 0.00 0.01 0.01 55 1015.2
20260504042726 60 288 0.9 1.7 0.00 0.01 0.01 56 1015.4
20260504042222 61 297 0.9 0.9 0.00 0.01 0.01 54 1015.4
20260504041718 61 326 0.0 0.0 0.00 0.01 0.01 54 1015.2
20260504041214 61 259 0.9 2.6 0.00 0.01 0.01 53 1015.1
20260504040711 62 295 0.9 5.2 0.00 0.01 0.01 53 1015.0
20260504040208 62 253 3.5 4.3 0.00 0.01 0.01 54 1014.9
20260504035704 62 205 6.1 11.3 0.00 0.01 0.01 53 1014.8
20260504035202 62 287 0.9 6.1 0.00 0.01 0.01 52 1014.9
20260504034659 61 230 1.7 4.3 0.00 0.01 0.01 53 1015.2
20260504034156 61 166 1.7 4.3 0.00 0.01 0.01 53 1015.1
20260504033654 61 269 2.6 4.3 0.00 0.01 0.01 53 1015.0
20260504033151 61 206 1.7 2.6 0.00 0.01 0.01 53 1015.3
20260504032648 61 278 0.9 2.6 0.00 0.01 0.01 53 1015.4
20260504032145 60 220 1.7 1.7 0.00 0.01 0.01 53 1015.3
20260504031642 61 291 0.9 1.7 0.00 0.01 0.01 53 1015.5
20260504031138 60 291 0.9 0.9 0.00 0.01 0.01 53 1015.4
20260504030635 61 288 0.9 1.7 0.00 0.01 0.01 53 1015.7
20260504030131 61 276 0.9 1.7 0.00 0.01 0.01 52 1015.8
20260504025628 61 295 0.9 1.7 0.00 0.01 0.01 53 1015.7
20260504025125 61 294 0.9 0.9 0.00 0.01 0.01 53 1015.7
20260504024623 62 299 0.0 0.9 0.00 0.01 0.01 53 1015.8
20260504024119 62 302 0.0 0.9 0.00 0.01 0.01 54 1015.7
20260504023616 61 308 0.0 0.9 0.00 0.01 0.01 55 1016.0
20260504023111 61 308 0.0 0.0 0.00 0.01 0.01 55 1015.8
20260504022608 61 309 0.0 0.0 0.00 0.01 0.01 54 1015.8
20260504022104 62 308 0.0 0.9 0.00 0.01 0.01 53 1015.6
20260504021602 62 303 0.9 1.7 0.00 0.01 0.01 52 1015.5
20260504021058 62 303 0.9 1.7 0.00 0.01 0.01 52 1015.8
20260504020555 63 313 0.9 0.9 0.00 0.01 0.01 52 1015.7
20260504020051 63 314 0.0 0.0 0.00 0.01 0.01 51 1015.5
20260504015548 63 310 0.0 0.9 0.00 0.01 0.01 51 1015.5
20260504015044 63 322 0.0 0.9 0.00 0.01 0.01 50 1015.5
20260504014541 64 320 0.0 0.9 0.00 0.01 0.01 49 1015.3
20260504014038 64 320 0.0 0.0 0.00 0.01 0.01 48 1015.2
20260504013535 64 310 0.0 0.9 0.00 0.01 0.01 48 1015.3
20260504013032 65 314 0.0 4.3 0.00 0.01 0.01 47 1014.9
20260504012530 65 248 1.7 1.7 0.00 0.01 0.01 48 1014.7
20260504012028 65 237 2.6 2.6 0.00 0.01 0.01 47 1015.0
20260504011524 65 203 3.5 6.1 0.00 0.01 0.01 46 1015.0
20260504011020 65 293 1.7 2.6 0.00 0.01 0.01 47 1014.8
20260504010516 65 269 2.6 2.6 0.00 0.01 0.01 47 1014.9
20260504010012 65 284 2.6 4.3 0.00 0.01 0.01 48 1015.1
20260504005509 65 304 0.9 4.3 0.00 0.01 0.01 48 1015.0
20260504005007 66 257 1.7 4.3 0.00 0.01 0.01 48 1014.9
20260504004504 65 164 2.6 2.6 0.00 0.01 0.01 48 1015.0
20260504004001 65 311 0.9 1.7 0.00 0.01 0.01 49 1014.9
20260504003457 65 303 0.9 2.6 0.00 0.01 0.01 48 1015.0
20260504002954 66 309 0.0 1.7 0.00 0.01 0.01 47 1015.2
20260504002451 66 311 0.0 0.9 0.00 0.01 0.01 47 1015.1
20260504001948 66 295 0.0 2.6 0.00 0.01 0.01 46 1015.0
20260504001446 66 299 0.9 2.6 0.00 0.01 0.01 46 1015.0
20260504000942 67 319 0.0 0.9 0.00 0.01 0.01 45 1015.0
20260504000439 67 305 0.9 1.7 0.00 0.01 0.01 45 1015.0
20260503235936 67 302 1.7 2.6 0.00 0.01 0.01 44 1015.4
20260503235434 67 294 0.9 2.6 0.00 0.01 0.01 43 1015.3
20260503234931 68 293 0.9 4.3 0.00 0.01 0.01 42 1015.3
20260503234429 68 178 3.5 4.3 0.00 0.01 0.01 41 1015.3
20260503233927 68 278 0.0 5.2 0.00 0.01 0.01 42 1015.2
20260503233423 68 279 1.7 5.2 0.00 0.01 0.01 43 1015.5
20260503232919 68 279 3.5 5.2 0.00 0.01 0.01 41 1015.7
20260503232416 68 316 0.9 2.6 0.00 0.01 0.01 41 1015.7
20260503231914 69 282 2.6 2.6 0.00 0.01 0.01 39 1015.6
20260503231411 69 252 1.7 2.6 0.00 0.01 0.01 40 1015.7
20260503230908 69 277 2.6 2.6 0.00 0.01 0.01 39 1015.7
20260503230404 69 206 2.6 2.6 0.00 0.01 0.01 39 1016.0
20260503225902 69 248 3.5 5.2 0.00 0.01 0.01 38 1016.1
20260503225358 69 284 1.7 6.1 0.00 0.01 0.01 38 1016.1
20260503224854 70 242 4.3 5.2 0.00 0.01 0.01 39 1016.0
20260503224351 70 326 0.9 7.0 0.00 0.01 0.01 40 1016.3
20260503223849 70 241 4.3 7.0 0.00 0.01 0.01 38 1016.1
20260503223347 70 304 2.6 4.3 0.00 0.01 0.01 37 1016.2
20260503222842 69 286 4.3 6.1 0.00 0.01 0.01 37 1016.2
20260503222341 70 339 3.5 5.2 0.00 0.01 0.01 38 1016.2
20260503221838 69 294 1.7 6.1 0.00 0.01 0.01 38 1016.3
20260503221337 70 270 2.6 4.3 0.00 0.01 0.01 37 1016.4
20260503220832 70 318 2.6 7.0 0.00 0.01 0.01 37 1016.3
20260503220330 70 247 6.1 7.0 0.00 0.01 0.01 36 1016.7
20260503215826 70 271 5.2 6.1 0.00 0.01 0.01 38 1016.6
20260503215324 70 204 2.6 5.2 0.00 0.01 0.01 37 1016.3
20260503214821 70 275 0.9 2.6 0.00 0.01 0.01 38 1016.7
20260503214318 70 260 3.5 5.2 0.00 0.01 0.01 37 1016.8
20260503213816 70 262 2.6 2.6 0.00 0.01 0.01 41 1016.8
20260503213314 70 276 4.3 7.0 0.00 0.01 0.01 38 1017.0
20260503212810 70 276 1.7 4.3 0.00 0.01 0.01 39 1016.9
20260503212308 69 282 3.5 7.8 0.00 0.01 0.01 39 1017.3
20260503211805 70 292 3.5 5.2 0.00 0.01 0.01 37 1017.3
20260503211302 71 313 0.9 1.7 0.00 0.01 0.01 38 1017.3
20260503210801 71 299 3.5 6.1 0.00 0.01 0.01 38 1017.3
20260503210300 70 119 0.9 2.6 0.00 0.01 0.01 39 1017.4
20260503205754 70 308 0.9 4.3 0.00 0.01 0.01 36 1017.9
20260503205251 70 346 2.6 4.3 0.00 0.01 0.01 36 1017.7
20260503204748 70 356 0.9 4.3 0.00 0.01 0.01 37 1017.8
20260503204245 71 332 1.7 5.2 0.00 0.01 0.01 38 1017.8
20260503203743 70 275 2.6 4.3 0.00 0.01 0.01 39 1017.9
20260503203240 70 316 0.9 5.2 0.00 0.01 0.01 41 1018.0
20260503202737 69 225 3.5 5.2 0.00 0.01 0.01 39 1018.0
20260503202235 68 184 1.7 2.6 0.00 0.01 0.01 37 1018.1
20260503201732 69 253 2.6 5.2 0.00 0.01 0.01 38 1018.1
20260503201230 70 322 0.0 2.6 0.00 0.01 0.01 38 1018.2
20260503200726 69 140 2.6 5.2 0.00 0.01 0.01 37 1018.6
20260503200222 70 251 3.5 5.2 0.00 0.01 0.01 38 1018.6
20260503195719 69 271 2.6 4.3 0.00 0.01 0.01 36 1018.8
20260503195216 69 338 2.6 6.1 0.00 0.01 0.01 39 1019.0
20260503194714 69 278 2.6 4.3 0.00 0.01 0.01 36 1018.9
20260503194209 69 325 0.0 2.6 0.00 0.01 0.01 38 1019.2
20260503193706 69 321 0.0 1.7 0.00 0.01 0.01 42 1019.2
20260503193202 68 348 1.7 4.3 0.00 0.01 0.01 37 1019.3
20260503192657 68 280 1.7 4.3 0.00 0.01 0.01 41 1019.3
20260503192153 67 218 3.5 5.2 0.00 0.01 0.01 42 1019.3
20260503191650 67 148 1.7 2.6 0.00 0.01 0.01 42 1019.6
20260503191147 67 213 2.6 4.3 0.00 0.01 0.01 42 1019.4
20260503190644 66 204 2.6 5.2 0.00 0.01 0.01 41 1019.7
20260503190141 66 265 2.6 4.3 0.00 0.01 0.01 41 1019.7
20260503185637 65 205 3.5 7.0 0.00 0.01 0.01 38 1019.9
20260503185132 66 223 2.6 5.2 0.00 0.01 0.01 38 1019.8
20260503184628 66 358 0.0 1.7 0.00 0.01 0.01 38 1019.9
20260503184125 66 236 1.7 4.3 0.00 0.01 0.01 40 1020.0
20260503183621 65 257 0.9 6.1 0.00 0.01 0.01 40 1020.1
20260503183118 66 216 1.7 4.3 0.00 0.01 0.01 43 1020.2
20260503182617 64 147 2.6 6.1 0.00 0.01 0.01 40 1020.3
20260503182115 65 145 1.7 5.2 0.00 0.01 0.01 40 1020.3
20260503181611 66 343 1.7 7.0 0.00 0.01 0.01 39 1020.4
20260503181108 65 205 3.5 4.3 0.00 0.01 0.01 40 1020.4
20260503180605 63 181 2.6 5.2 0.00 0.01 0.01 41 1020.4
20260503180103 64 284 1.7 4.3 0.00 0.01 0.01 41 1020.6
20260503175559 64 252 4.3 6.1 0.00 0.01 0.01 43 1020.7
20260503175057 65 240 4.3 6.1 0.00 0.01 0.01 44 1020.7
20260503174553 63 309 0.9 0.9 0.00 0.01 0.01 44 1020.8
20260503174050 62 77 0.9 1.7 0.00 0.01 0.01 42 1020.7
20260503173545 63 244 2.6 5.2 0.00 0.01 0.01 43 1020.8
20260503173042 64 319 4.3 5.2 0.00 0.01 0.01 43 1021.1
20260503172539 62 287 1.7 1.7 0.00 0.01 0.01 42 1021.0
20260503172036 61 292 1.7 6.1 0.00 0.01 0.01 42 1021.3
20260503171533 62 231 1.7 2.6 0.00 0.01 0.01 44 1021.2
20260503171030 63 267 2.6 2.6 0.00 0.01 0.01 45 1021.3
20260503170526 62 257 2.6 2.6 0.00 0.01 0.01 44 1021.3
20260503150919 58 321 0.9 1.7 0.00 0.01 0.01 62 1022.3
20260503150415 58 338 0.0 1.7 0.00 0.01 0.01 62 1022.2
20260503131308 49 6 0.0 0.9 0.00 0.01 0.01 92 1022.0
20260503130806 48 359 0.0 0.9 0.00 0.01 0.01 96 1022.2
20260503130303 48 0 0.0 0.9 0.00 0.01 0.01 98 1022.2
20260503110657 42 343 0.0 0.0 0.00 0.00 0.00 99 1021.0
20260503110154 42 343 0.0 0.0 0.00 0.00 0.00 99 1021.0
20260503100121 42 337 0.0 0.0 0.00 0.00 0.00 99 1020.8
20260503081510 44 337 0.0 0.0 0.00 0.00 0.00 99 1020.5
20260503081007 43 339 0.0 0.0 0.00 0.00 0.00 99 1020.4
20260503080503 44 343 0.0 0.0 0.00 0.00 0.00 99 1020.4
20260503072940 45 335 0.0 0.0 0.00 0.00 0.00 99 1020.2
20260503072437 45 335 0.0 0.0 0.00 0.00 0.00 99 1020.2
20260503071934 45 334 0.0 0.9 0.00 0.00 0.00 99 1020.4
20260503071431 45 336 0.0 0.0 0.00 0.00 0.00 99 1020.2
20260503070927 45 336 0.0 0.0 0.00 0.00 0.00 99 1020.2
20260503070424 45 332 0.0 0.0 0.00 0.00 0.00 99 1020.2